194 serials | android malwarebytes 3.1.1.1 1 registration key

Date Name Success Rate
2009-10-22 23:27:20 ANDROID 57%
2011-09-08 10:06:45 ANDROID 55%
2009-10-17 06:25:48 Jadeware Android V1.2 59%
2009-10-22 23:49:21 Phelios Android 1.2 57%
2011-09-08 11:18:28 Jadeware Android v1.2 50%
2011-09-08 12:30:20 Phelios Android 1.1 58%
2009-10-17 06:18:44 Android Newsgroup Downloader V5.6-ONE 67%
2009-10-22 23:49:21 Phelios Android 1.0 052803 0%
2009-10-22 23:49:21 Phelios Android 1.0.100803 0%
2011-09-08 12:30:20 Phelios Android 1.0 052803 45%
2011-09-08 12:30:20 Phelios Android 1.0.100803 57%
2011-09-08 12:30:20 Phelios Android v1.2 by REVENGE 0%
2011-09-08 12:51:18 SplashID Desktop (for Android) 4.6.0 33%
2012-12-12 00:27:05 AHDSoft AHD Android Converter v4.6.3.10 0%
2012-12-12 00:27:06 AHDSoft AHD Android Converter v4.6.3.8 0%
2012-12-12 10:49:21 Engelmann Android Converter v1.10.813 57%
2012-12-13 09:52:14 SplashID Android Desktop v5.3.4 57%
2012-12-13 09:52:17 SplashID Desktop for Android v4.6.0 0%
2012-12-13 09:52:40 SplashMoney Android Desktop v4.7.2 80%
2009-10-17 06:32:11 SBSoftware Android Newsgroup Downloader V5.7-ONE 10%
2009-10-22 23:49:51 SBSoftware Android Newsgroup Downloader 5.7 0%
2011-09-08 12:30:20 Phelios Android v1.0.100803 by REVENGE 0%
2012-12-13 12:44:32 ThinkVD DVD To Android Converter v1.9.5.1129 0%
2012-12-13 19:08:40 Wondershare Data Recovery for Android v1.0 68%
2012-12-13 12:44:09 ThinkVD Android Video Converter v1.9.5.1129 47%
2011-09-08 10:42:09 DAS Registration 1.5.2 64%
2011-09-08 10:42:09 DAS Registration For CW5 45%
2011-09-08 10:42:09 DAS Registration v1.5.2 0%
2009-10-17 06:27:02 Lazarus Registration DLL V1.0 55%
2009-10-22 23:48:48 MemoriesonTV Registration 0%
2009-10-22 23:49:42 Registration Wizard 73%
2011-09-08 10:06:47 AnetHelpTool v4.02 Registration 52%
2011-09-08 10:22:13 ByeLines Registration 78%
2011-09-08 10:57:42 Ftgate Registration 72%
2011-09-08 11:15:16 Infodex v2.10 Registration 45%
2011-09-08 11:25:08 Lazarus Registration DLL v1.0 47%
2011-09-08 11:27:46 Mac Opener v3.0 Registration 57%
2011-09-08 11:32:59 mIRC v4.5+ Registration 35%
2011-09-08 11:32:59 mIRC v4.52 Registration 51%
2011-09-08 12:37:02 Quant v2.0 Registration 52%
2011-09-08 12:41:14 Registration Suite 1.0 56%
2011-09-08 12:41:14 Registration Suite v1.0 60%
2011-09-08 12:41:14 Registration Wizard Pro 5.01 46%
2011-09-08 12:41:14 Registration Wizard Pro v5.01 60%
2011-09-08 13:18:59 WinHacker 95 v2.02 Registration 57%
2012-12-13 05:12:00 Registration Key : 526EFEF086E09600449E667EA2DAE8E2E6D642BC 65%
2009-10-22 23:27:21 Ardamax Keylogger 2.9 Registration 56%
2009-10-22 23:48:49 Microsoft Registration Hacker - 39%
2009-10-22 23:49:57 SoudForge ALL (No Registration Requiered) 0%
2009-10-22 23:50:26 Valve's Registration Armor Key-Gen 60%
2011-09-08 10:21:42 Browserola v1.01 Temp. Registration 0%
2011-09-08 10:56:11 FontLook v3.1 Registration Code 71%
2011-09-08 11:31:51 Microsoft Registration Hacker 0%
2011-09-08 11:31:51 Microsoft Registration Hacker - 0%
2011-09-08 11:31:51 Microsoft Registration HackerMSREGHACK 0%
2011-09-08 11:32:07 Microstation v5.xx.xx & 95 FULL REGISTRATION 73%
2011-09-08 11:42:43 Nic O'Matic 1.6 Registration Code 67%
2011-09-08 11:42:43 Nic O'Matic v1.6 Registration Code 48%
2011-09-08 12:34:57 PolyTrans V1.2E Registration Activator CD-Key 73%
2011-09-08 12:34:57 PolyView v2.9b16 Registration 0%
2011-09-08 12:54:09 Time Registration (German) 1.10 0%
2011-09-08 12:59:30 Super Collapse Registration 83%
2011-09-08 13:23:15 Yipe! II for Windows Registration #154 0%
2012-12-13 08:49:53 Softwarenetz Time Registration v1.10 28%
2012-12-13 08:49:56 Softwarenetz Time Registration v1.14 0%
2012-12-13 15:34:10 Valve's Registration Armor Key-Gen 0%
2009-10-22 23:48:17 Internet Download Manager Registration 55%
2011-09-08 10:25:56 Cheyenne Bitware V4.0 Registration Number 53%
2011-09-08 11:31:51 Microsoft Registration Hacker MSREGHACK 69%
2011-09-08 11:31:51 Microsoft Visual Basic 5 registration cd key 72%
2011-09-08 12:54:14 TimeSlips 10.5 enterprise - with registration code! 54%
2012-12-12 08:07:32 Download avast 5.0.667 Antivirus registration 52%
2012-12-13 05:12:00 Registration Code For PDFZilla Giveaway 42%
2012-12-13 05:12:00 Registration key for x-3gp-video-converter-38540 81%
2012-12-13 13:12:40 Total Image Converter Registration Key 49%
2011-09-08 11:30:16 MediaBlaze 98 v1.01 Win95/NT User: delphic Registration 0%
2012-12-13 05:12:00 Registration code:-826510-16101-266644 59%
2009-10-22 23:49:02 Norton Internet Security 2005 Registration Guide 0%
2011-09-08 09:58:40 Acoustica Mixcraft v1.10 Build 15 Registration Info by MaBi 60%
2012-12-12 19:40:26 Microsoft Visual Basic 2008 Express Edition Registration key 50%
2009-10-22 23:48:46 Malwarebytes 53%
2009-10-22 23:48:46 Malwarebytes 1.30 0%
2009-10-22 23:48:46 Malwarebytes V1.41 20%
2012-12-12 18:29:06 Malwarebytes 1.44 0%
2012-12-12 18:29:07 Malwarebytes 1.51.0 15%
2009-10-22 23:48:46 Malwarebytes Antimalware1_12 0%
2009-10-22 23:48:46 Malwarebytes RogueRemover Pro V1.20 0%
2012-12-12 18:29:05 Malwarebytes Pro 1.60.0.1800 82%
2012-12-12 18:29:06 Malwarebytes 1.46 by sumit 0%
2012-12-12 18:29:06 Malwarebytes 1.50(2011) 19%
2012-12-12 18:29:07 MalwareBytes 1.50.1.1100 0%
2012-12-12 18:29:08 Malwarebytes 1.51.1.1800 0%
2012-12-12 18:29:08 Malwarebytes 1.51.2.1300 15%
2012-12-12 18:29:09 Malwarebytes 1.60.0.1800 12%
2012-12-12 18:29:09 Malwarebytes 1.62.0.1300 11%
2012-12-12 18:29:10 Malwarebytes 1.65.0.1400 0%
2012-12-12 18:29:10 Malwarebytes 1.65.1.1000 80%
2012-12-12 18:29:11 Malwarebytes 1.65.1.1000 *** 57%
2012-12-12 18:31:34 Malwarebytes Pro 1.65.0.XXXX 32%
2009-10-17 06:27:51 Malwarebytes Anti-Malware V1.05-CRD 64%
2009-10-17 06:27:51 Malwarebytes Anti-Malware V1.12-CRD 0%
2009-10-17 06:27:51 Malwarebytes Anti-Malware V1.26-CRD 0%
2009-10-17 06:27:51 Malwarebytes Anti-Malware V1.28-CRD 0%
2009-10-17 06:27:51 Malwarebytes Anti-Malware V1.29-CRD 10%
2009-10-17 06:27:51 Malwarebytes RogueRemover Pro V1.20Vista-CRD 0%
2009-10-22 23:48:46 Malwarebytes Anti Malware 1.40 60%
2009-10-22 23:48:46 Malwarebytes Anti-Malware 0%
2009-10-22 23:48:46 Malwarebytes Anti-Malware 15%
2009-10-22 23:48:46 Malwarebytes Anti-Malware 1.31 0%
2009-10-22 23:48:46 Malwarebytes Anti-Malware 1.26 0%
2009-10-22 23:48:46 Malwarebytes Anti-Malware 1.3 0%
2009-10-22 23:48:46 Malwarebytes Anti-Malware 1.30 0%
2009-10-22 23:48:46 Malwarebytes Anti-Malware 1.31 0%
2009-10-22 23:48:46 Malwarebytes Anti-Malware 1.32 0%
2009-10-22 23:48:46 Malwarebytes Anti-Malware 1.33 0%
2009-10-22 23:48:46 Malwarebytes Anti-Malware 1.39 0%
2009-10-22 23:48:46 Malwarebytes Anti-Malware 1.41 30%
2009-10-22 23:48:46 Malwarebytes Anti-Malware V1.05 0%
2009-10-22 23:48:46 Malwarebytes Anti-Malware V1.12 0%
2009-10-22 23:48:46 Malwarebytes Anti-Malware V1.26 0%
2009-10-22 23:48:46 Malwarebytes Anti-Malware V1.28 0%
2009-10-22 23:48:46 Malwarebytes Anti-Malware V1.29 0%
2009-10-22 23:48:46 Malwarebytes Anti-Malware V1.31 0%
2009-10-22 23:48:46 Malwarebytes Anti-Malware V1.31 0%
2009-10-22 23:48:46 Malwarebytes Anti-Malware V1.33 0%
2009-10-22 23:48:46 Malwarebytes Anti-Malware V1.35 0%
2009-10-22 23:48:46 Malwarebytes Anti-Malware V1.36 0%
2009-10-22 23:48:46 Malwarebytes Anti-malware V1.37 0%
2009-10-22 23:48:46 Malwarebytes Anti-Malware V1.38 0%
2009-10-22 23:48:46 Malwarebytes Anti-Malware V1.40 0%
2009-10-22 23:48:46 Malwarebytes' Anti-Malware 100%
2011-09-08 11:29:12 Malwarebytes Anti-Malware 1.41 0%
2012-12-12 18:29:04 Malwarebytes Anti malware 44%
2012-12-12 18:29:05 Malwarebytes Anti-Malware 1.44 45%
2012-12-12 18:29:07 Malwarebytes 1.51 tested and working 0%
2012-12-12 18:29:11 Malwarebytes Anti malware 0%
2012-12-12 18:29:12 Malwarebytes Anti Malware 1.50 0%
2012-12-12 18:29:14 MalwareBytes Anti Malware 1.65.XXX 0%
2012-12-12 18:29:24 Malwarebytes Anti Malware v1.42 0%
2012-12-12 18:29:27 Malwarebytes Anti Malware v1.50 0%
2012-12-12 18:30:18 Malwarebytes Anti-Malware 1.42 54%
2012-12-12 18:30:21 MalwareBytes Anti-Malware 1.45 0%
2012-12-12 18:30:24 Malwarebytes Anti-Malware 1.46 0%
2012-12-12 18:30:30 Malwarebytes Anti-Malware 1.5 0%
2012-12-12 18:30:33 Malwarebytes Anti-Malware 1.50 0%
2012-12-12 18:30:44 Malwarebytes Anti-Malware 1.51.0 0%
2012-12-12 18:30:44 Malwarebytes Anti-Malware 1.60 0%
2012-12-12 18:30:45 Malwarebytes Anti-Malware 1.61 0%
2012-12-12 18:30:46 Malwarebytes Anti-Malware 1.65 58%
2012-12-12 18:30:47 Malwarebytes Anti-Malware PRO 36%
2012-12-12 18:31:10 Malwarebytes Anti-Malware v1.46 0%
2012-12-12 18:31:28 Malwarebytes AntiMalware 1.51.1.1800 63%
2012-12-12 18:31:40 Malwarebytes serial 01/18/2011 0%
2012-12-12 18:31:43 Malwarebytes' Anti-Malware 0%
2009-10-23 07:01:13 2009 Malwarebytes Anti-Malware 1.40 0%
2009-10-22 23:48:46 Malwarebytes Anti-Malware V1.36 (Punkcracks) 0%
2011-09-08 11:29:12 Malwarebytes Anti-Malware Multilanguage 1.03 0%
2011-09-08 11:29:12 Malwarebytes Anti-Malware Multilingual 1.40 0%
2011-09-08 11:29:12 Malwarebytes Anti-Malware Multilingual 1.42 84%
2011-09-08 11:29:12 Malwarebytes Anti-Malware Multilingual 1.46 60%
2012-12-12 18:29:08 Malwarebytes 1.51.0.1200 (June 2011) 0%
2012-12-12 18:29:12 Malwarebytes Anti Malware 1.50.1.1100 0%
2012-12-12 18:29:12 Malwarebytes anti malware 1.51.1.1800 0%
2012-12-12 18:29:12 MalwareBytes Anti Malware 1.51.2.1300 71%
2012-12-12 18:29:13 Malwarebytes Anti Malware 1.60.0.1800 0%
2012-12-12 18:29:13 Malwarebytes anti malware 1.65.0.1400 73%
2012-12-12 18:29:17 Malwarebytes anti malware pro 1.60.0.1800 0%
2012-12-12 18:29:21 MalwareBytes Anti Malware v1 51 0 1200 0%
2012-12-12 18:29:30 MalwareBytes Anti Malware v1.51.0.1200 0%
2012-12-12 18:29:33 Malwarebytes Anti Malware v1.60.1.1000 52%
2012-12-12 18:29:36 Malwarebytes Anti Malware v1.60.8.1800 0%
2012-12-12 18:30:27 Malwarebytes Anti-Malware 1.46 -Working ! 0%
2012-12-12 18:30:36 Malwarebytes Anti-Malware 1.50 Beta 0%
2012-12-12 18:30:39 Malwarebytes Anti-Malware 1.50.1.1100 0%
2012-12-12 18:30:44 Malwarebytes Anti-Malware 1.51.1.1800 0%
2012-12-12 18:30:44 Malwarebytes Anti-Malware 1.51.2.1300 0%
2012-12-12 18:30:45 Malwarebytes Anti-Malware 1.60.1.1000 0%
2012-12-12 18:30:45 Malwarebytes Anti-Malware 1.61.0.1400 0%
2012-12-12 18:30:46 Malwarebytes Anti-Malware 1.62.0.1300 0%
2012-12-12 18:30:47 Malwarebytes Anti-Malware 1.65.1.1000 0%
2012-12-12 18:30:48 Malwarebytes Anti-Malware PRO 1.51.1.1800 0%
2012-12-12 18:30:48 Malwarebytes Anti-Malware Pro 1.51.2.1300 10%
2012-12-12 18:30:48 Malwarebytes Anti-Malware PRO v1.51.1.1800 0%
2012-12-12 18:30:48 Malwarebytes Anti-Malware PRO v1.51.2.1300 0%
2012-12-12 18:30:49 Malwarebytes Anti-Malware PRO v1.60.1.1000 58%
2012-12-12 18:31:12 Malwarebytes Anti-Malware v1.50.1.1100 0%
2012-12-12 18:31:15 Malwarebytes Anti-Malware v1.51.1.1800 0%
2012-12-12 18:31:18 MalwareBytes Anti-Malware v1.511.1.1800 0%
2012-12-12 18:31:21 Malwarebytes Anti-Malware v1.60.0.1800 0%
2012-12-12 18:31:48 Malwarebytes.Anti.Malware.v1.51.2.1300 0%
2012-12-12 18:49:24 MBAM MalwareBytes AntiMalware- All Versions 69%
2012-12-12 18:29:09 Malwarebytes 1.51.2.1300 data base:8004 0%
2012-12-12 18:30:42 Malwarebytes Anti-Malware 1.50.1.1100 ( MAY 2011) 11%
2012-12-12 18:31:24 Malwarebytes Anti-Malware version 1.51.0.1200 0%